Weather History for Minden, LA

Change the Weather History Date:

Sunday, November 4, 2012

  Actual Average (KBAD) Record (KBAD)
Temperature  
Mean Temperature 60 °F -  
Max Temperature 67 °F 66 °F 84 °F (2003)
Min Temperature 55 °F 47 °F 33 °F (1997)
Degree Days  
Heating Degree Days 4    
Growing Degree Days 10 (Base 50)    
Moisture  
Dew Point 55 °F    
Average Humidity 78    
Maximum Humidity 88    
Minimum Humidity 61    
Precipitation  
Precipitation 0.00 in - - ()
Sea Level Pressure  
Sea Level Pressure 30.11 in    
Wind  
Wind Speed 3 mph ()    
Max Wind Speed 12 mph    
Max Gust Speed -    
Visibility 10.0 miles    
Events Thunderstorm    
Averages and records for this station are not official NWS values.
T = Trace of Precipitation, MM = Missing Value Source: Averaged Metar Reports

Daily Weather History Graph

Daily Weather History Graph

Search for Another Location

Airport:

Trip Planner

Search our weather history database for the weather conditions in past years. The results will help you decide how hot, cold, wet, or windy it might be!

Date:

Astronomy

Nov. 04, 2012 Rise Set
Actual Time 6:33 AM CST 5:19 PM CST
Civil Twilight 6:08 AM CST 5:44 PM CST
Nautical Twilight 5:38 AM CST 6:14 PM CST
Astronomical Twilight 5:10 AM CST 6:43 PM CST
Moon 10:00 PM CST (11/4) 11:14 AM CST (11/4)
Length of Visible Light 11h 36m
Length of Day
10h 45m
Waning Gibbous, 72% of the Moon is Illuminated
Nov 4
Waning Gibbous
Nov 6
Last Quarter
Nov 13
New
Nov 20
First Quarter
Nov 28
Full

Hourly Weather History & Observations

Time (CST) Temp. Dew Point Humidity Pressure Visibility Wind Dir Wind Speed Gust Speed Precip Events Conditions
12:15 AM 64.4 °F 59.9 °F 85% 30.06 in 10.0 mi SE 4.6 mph - N/A   Clear
12:35 AM 64.6 °F 60.3 °F 86% 30.08 in 10.0 mi Calm Calm - N/A   Clear
12:55 AM 64.4 °F 60.3 °F 86% 30.08 in 10.0 mi Calm Calm - N/A   Clear
1:15 AM 64.2 °F 60.3 °F 87% 30.08 in 10.0 mi Calm Calm - N/A Thunderstorm Clear
1:35 AM 63.7 °F 60.1 °F 88% 30.07 in 10.0 mi Calm Calm - N/A   Clear
1:55 AM 64.4 °F 59.9 °F 85% 30.07 in 10.0 mi Calm Calm - N/A   Clear
1:15 AM 64.6 °F 59.9 °F 85% 30.06 in 10.0 mi Calm Calm - N/A   Clear
1:35 AM 65.3 °F 59.7 °F 82% 30.06 in 10.0 mi Calm Calm - N/A   Clear
1:55 AM 63.9 °F 59.5 °F 86% 30.06 in 10.0 mi East 3.5 mph - N/A   Clear
2:15 AM 65.3 °F 59.9 °F 83% 30.06 in 10.0 mi ESE 4.6 mph - N/A   Clear
2:35 AM 65.3 °F 59.5 °F 82% 30.07 in 10.0 mi East 3.5 mph - N/A   Scattered Clouds
2:55 AM 64.2 °F 59.4 °F 84% 30.07 in 10.0 mi Calm Calm - N/A   Scattered Clouds
3:15 AM 62.6 °F 59.0 °F 88% 30.08 in 10.0 mi North 5.8 mph - N/A   Scattered Clouds
3:35 AM 63.0 °F 59.0 °F 87% 30.08 in 10.0 mi North 3.5 mph - N/A   Scattered Clouds
3:55 AM 62.6 °F 58.1 °F 85% 30.09 in 10.0 mi North 6.9 mph - N/A   Clear
4:15 AM 62.2 °F 58.1 °F 86% 30.09 in 10.0 mi Calm Calm - N/A   Mostly Cloudy
4:35 AM 62.1 °F 57.2 °F 84% 30.11 in 10.0 mi East 6.9 mph - N/A   Overcast
4:55 AM 61.3 °F 56.5 °F 84% 30.11 in 10.0 mi NE 5.8 mph - N/A   Overcast
5:15 AM 61.0 °F 55.4 °F 82% 30.11 in 10.0 mi ENE 6.9 mph - N/A   Overcast
5:35 AM 60.8 °F 54.1 °F 79% 30.12 in 10.0 mi North 6.9 mph - N/A   Overcast
5:55 AM 60.1 °F 54.0 °F 80% 30.12 in 10.0 mi North 3.5 mph - N/A   Overcast
6:15 AM 59.4 °F 53.6 °F 81% 30.12 in 10.0 mi North 5.8 mph - N/A   Overcast
6:35 AM 58.3 °F 52.9 °F 82% 30.13 in 10.0 mi Calm Calm - N/A   Scattered Clouds
6:55 AM 57.7 °F 53.1 °F 84% 30.13 in 10.0 mi NNE 3.5 mph - N/A   Mostly Cloudy
7:15 AM 57.4 °F 53.1 °F 85% 30.14 in 10.0 mi Calm Calm - N/A   Mostly Cloudy
7:35 AM 58.1 °F 53.1 °F 83% 30.15 in 10.0 mi Calm Calm - N/A   Mostly Cloudy
7:55 AM 58.1 °F 52.9 °F 83% 30.15 in 10.0 mi Calm Calm - N/A   Overcast
8:15 AM 58.3 °F 52.9 °F 82% 30.16 in 10.0 mi NE 4.6 mph - N/A   Overcast
8:35 AM 58.3 °F 53.2 °F 83% 30.16 in 10.0 mi ENE 5.8 mph - N/A   Overcast
8:55 AM 58.8 °F 53.6 °F 83% 30.17 in 10.0 mi NNE 5.8 mph - N/A   Overcast
9:15 AM 59.0 °F 54.0 °F 83% 30.16 in 10.0 mi NE 5.8 mph - N/A   Overcast
9:35 AM 60.4 °F 54.7 °F 81% 30.16 in 10.0 mi East 4.6 mph - N/A   Overcast
9:55 AM 61.0 °F 55.0 °F 81% 30.17 in 10.0 mi NE 5.8 mph - N/A   Overcast
10:15 AM 61.5 °F 55.2 °F 80% 30.17 in 10.0 mi NE 6.9 mph - N/A   Overcast
10:35 AM 62.1 °F 55.4 °F 79% 30.16 in 10.0 mi NE 5.8 mph - N/A   Overcast
10:55 AM 63.1 °F 55.6 °F 76% 30.16 in 10.0 mi ENE 4.6 mph - N/A   Overcast
11:15 AM 63.7 °F 55.6 °F 75% 30.15 in 10.0 mi ENE 5.8 mph - N/A   Overcast
11:35 AM 64.0 °F 55.4 °F 73% 30.14 in 10.0 mi NE 5.8 mph - N/A   Overcast
11:55 AM 62.8 °F 54.9 °F 75% 30.15 in 10.0 mi NE 5.8 mph - N/A   Overcast
12:15 PM 59.5 °F 52.7 °F 78% 30.14 in 10.0 mi NE 8.1 mph - N/A   Overcast
12:35 PM 58.6 °F 51.1 °F 76% 30.14 in 10.0 mi NNE 8.1 mph - N/A   Overcast
12:55 PM 60.4 °F 50.2 °F 69% 30.13 in 10.0 mi ENE 11.5 mph - N/A   Overcast
1:15 PM 61.0 °F 50.5 °F 68% 30.13 in 10.0 mi NE 6.9 mph - N/A   Overcast
1:35 PM 63.0 °F 51.6 °F 66% 30.12 in 10.0 mi NE 4.6 mph - N/A   Overcast
1:55 PM 64.0 °F 51.8 °F 64% 30.11 in 10.0 mi NE 5.8 mph - N/A   Overcast
2:15 PM 64.8 °F 52.5 °F 64% 30.11 in 10.0 mi NE 4.6 mph - N/A   Overcast
2:35 PM 66.0 °F 52.5 °F 62% 30.10 in 10.0 mi NE 5.8 mph - N/A   Overcast
2:55 PM 66.6 °F 52.7 °F 61% 30.09 in 10.0 mi NE 5.8 mph - N/A   Overcast
3:15 PM 65.3 °F 52.9 °F 64% 30.09 in 10.0 mi ENE 4.6 mph - N/A   Mostly Cloudy
3:35 PM 66.9 °F 53.2 °F 61% 30.09 in 10.0 mi East 4.6 mph - N/A   Mostly Cloudy
3:55 PM 65.8 °F 53.1 °F 63% 30.09 in 10.0 mi East 4.6 mph - N/A   Overcast
4:15 PM 65.7 °F 53.6 °F 65% 30.09 in 10.0 mi ENE 5.8 mph - N/A   Overcast
4:35 PM 65.3 °F 53.6 °F 66% 30.08 in 10.0 mi East 4.6 mph - N/A   Overcast
4:55 PM 63.7 °F 53.6 °F 70% 30.09 in 10.0 mi ENE 3.5 mph - N/A   Scattered Clouds
5:15 PM 62.2 °F 53.6 °F 73% 30.09 in 10.0 mi NNE 3.5 mph - N/A   Mostly Cloudy
5:35 PM 61.5 °F 52.7 °F 73% 30.09 in 10.0 mi NNE 5.8 mph - N/A   Overcast
5:55 PM 60.8 °F 52.7 °F 75% 30.10 in 10.0 mi Calm Calm - N/A   Overcast
6:15 PM 60.1 °F 52.5 °F 76% 30.11 in 10.0 mi Calm Calm - N/A   Mostly Cloudy
6:35 PM 59.9 °F 52.5 °F 77% 30.12 in 10.0 mi Calm Calm - N/A   Mostly Cloudy
6:55 PM 59.9 °F 52.2 °F 76% 30.12 in 10.0 mi Calm Calm - N/A   Overcast
7:15 PM 59.4 °F 52.0 °F 77% 30.12 in 10.0 mi ENE 3.5 mph - N/A   Mostly Cloudy
7:35 PM 59.4 °F 51.8 °F 76% 30.12 in 10.0 mi Calm Calm - N/A   Overcast
7:55 PM 59.0 °F 51.8 °F 77% 30.12 in 10.0 mi Calm Calm - N/A   Overcast
8:15 PM 58.1 °F 51.3 °F 78% 30.12 in 10.0 mi East 3.5 mph - N/A   Scattered Clouds
8:35 PM 57.2 °F 51.3 °F 81% 30.12 in 10.0 mi Calm Calm - N/A   Clear
8:55 PM 57.2 °F 50.9 °F 79% 30.12 in 10.0 mi Calm Calm - N/A   Clear
9:15 PM 55.4 °F 50.9 °F 85% 30.12 in 10.0 mi Calm Calm - N/A   Scattered Clouds
9:35 PM 55.2 °F 51.3 °F 87% 30.12 in 10.0 mi Calm Calm - N/A   Mostly Cloudy
9:55 PM 55.4 °F 51.6 °F 87% 30.12 in 10.0 mi Calm Calm - N/A   Overcast
10:15 PM 56.3 °F 51.1 °F 83% 30.12 in 10.0 mi Calm Calm - N/A   Overcast
10:35 PM 56.3 °F 51.1 °F 83% 30.12 in 10.0 mi East 3.5 mph - N/A   Overcast